sat.trackr.live / text

‹ back to catalog

GEESAT-6 10

NORAD 65722 · 2025-214L

PAYLOAD ACTIVE UNKNOWN

§ Identity

Operator
Country
PRC
Launch date
2025-09-24
Launch site
YSLA
Launch vehicle
Mass (kg)
RCS (m²)

External: N2YO · Heavens-Above · Gunter

§ Orbital elements

Epoch: 2026-09-20T10:39:42.321312Z

Period
97.06 min
Inclination
49.9895°
Eccentricity
0.0011571
Mean motion
14.83584945 rev/d
Perigee alt
609.9 km
Apogee alt
626.1 km
Semi-major
6,996.2 km
B*
1.4314e-4
RAAN
227.3072°
Arg perigee
242.5492°
Mean anomaly
117.4270°
Rev number
5,364

§ Raw data

GEESAT-6 101 65722U 25214L   26263.44423983  .00000965  00000+0  14314-3 0  99972 65722  49.9895 227.3072 0011571 242.5492 117.4270 14.83584945 53645

JSON: /api/v1/satellites/65722 · /tle

For live sub-satellite position, see the globe view (requires WebGL).

§ Visibility from observer

Set your observer location to see the next 7 days of passes ≥ 10°. The values pass through the URL so the page stays shareable.

No JS? Fill the form by hand. The geolocation button needs JavaScript.